Home > Weather > Shenzhen > Past weeks

Flag for China Weather for the Past 2 Weeks in Shenzhen, Guangdong, China

Now
64 °F

Passing clouds.


Feels Like: 64 °F
Forecast: 57 / 74 °F
Wind: 10 mph from Southeast

Location: Shenzhen Airport

Current Time: Feb 10, 2016 at 7:33:59 PM

Latest Report: Feb 10, 2016 at 7:00 PM


Visibility: N/A

Pressure: 29.98 "Hg

Humidity: 73%

Dew point: 55 °F

Location of ShenzhenLocation

Historic Weather in Shenzhen — Graph

°F

Shenzhen Temperature Yesterday

Maximum temperature yesterday: 70 °F (at 12:00 PM)
Minimum temperature yesterday: 48 °F (at 6:00 AM)
Average temperature yesterday: 59 °F

High & Low Weather Summary for the Past Weeks

 TemperatureHumidityPressure
High70 °F (Feb 8, 12:00 PM)100% (Jan 27, 4:00 AM)30.36 "Hg (Jan 27, 4:00 AM)
Low43 °F (Jan 26, 6:00 PM)17% (Feb 7, 1:00 PM)29.98 "Hg (Jan 28, 4:00 PM)
Average56 °F71%30.18 "Hg
* Reported Jan 26 6:00 PM — Feb 10 6:00 PM, Shenzhen, Weather by CustomWeather, © 2016

Note: Actual official high and low records may vary slightly from our data, if they occured in-between our weather recording intervals... More about our weather records

Advertising

Shenzhen Weather History for the Previous 24 Hours

 ConditionsComfort  
Time TempWeatherWind HumidityBarometerVisibility
6:00 PM
Wed, Feb 10
63 °FPartly sunny.1 mph73%29.98 "HgN/A
5:00 PM63 °FPartly sunny.1 mph77%29.98 "HgN/A
4:00 PM63 °FScattered clouds.3 mph77%29.98 "HgN/A
3:00 PM63 °FScattered clouds.3 mph77%29.98 "HgN/A
2:00 PM63 °FBroken clouds.3 mph77%30.01 "HgN/A
1:00 PM63 °FBroken clouds.8 mph83%30.04 "HgN/A
12:00 PM66 °FBroken clouds.13 mph68%30.07 "HgN/A
11:00 AM66 °FBroken clouds.10 mph60%30.09 "HgN/A
10:00 AM63 °FSunny.3 mph68%30.09 "Hg10 mi
9:00 AM63 °FSunny.1 mph73%30.09 "Hg10 mi
8:00 AM61 °FSunny.1 mph68%30.07 "Hg10 mi
7:00 AM59 °FSunny.1 mph77%30.07 "Hg10 mi
6:00 AM59 °FClear.1 mph68%30.04 "Hg10 mi
5:00 AM59 °FClear.3 mph63%30.04 "Hg10 mi
4:00 AM59 °FClear.3 mph72%30.04 "Hg10 mi
3:00 AM59 °FClear.1 mph77%30.04 "Hg10 mi
2:00 AM63 °FPassing clouds.6 mph59%30.07 "HgN/A
1:00 AM63 °FPassing clouds.6 mph59%30.07 "HgN/A
12:00 AM63 °FClear.6 mph59%30.09 "Hg10 mi
11:00 PM
Tue, Feb 9
57 °FClear.No wind88%30.09 "Hg10 mi
10:00 PM59 °FClear.1 mph77%30.09 "Hg10 mi
9:00 PM59 °FPassing clouds.3 mph77%30.09 "HgN/A
8:00 PM61 °FClear.3 mph77%30.09 "Hg10 mi
7:00 PM61 °FClear.1 mph72%30.07 "Hg10 mi
Weather by CustomWeather, © 2016

See weather overviewHow to use our weather pages